EAG5518 SBPV-SBRB

Flight info

Callsign EAG5518
Flight time 0h 50m
Altitude 28000
Route OSATU UZ74 BIGOD
Aircraft A320/M-SDE3FGHIRWY/LB1

Departure

Time 2026-04-27 19:48
Airport Governador Jorge Teixeira de Oliveira International Airport (SBPV)

Arrival

Time 2026-04-27 20:39
Airport Rio Branco-Plácido de Castro International Airport (SBRB)
Time Latitude Longitude Altitude Speed Heading
2026-04-27 19:36 -8.71460 -63.89927 302 ft 0 kts 87°
2026-04-27 19:42 -8.71460 -63.89932 299 ft 3 kts 86°
2026-04-27 19:43 -8.71462 -63.89959 299 ft 4 kts 86°
2026-04-27 19:43 -8.71463 -63.89986 299 ft 4 kts 87°
2026-04-27 19:43 -8.71464 -63.90013 301 ft 4 kts 91°
2026-04-27 19:43 -8.71462 -63.90040 301 ft 4 kts 112°
2026-04-27 19:44 -8.71451 -63.90054 303 ft 1 kts 176°
2026-04-27 19:46 -8.71455 -63.90054 302 ft 5 kts 176°
2026-04-27 19:46 -8.71553 -63.90047 299 ft 16 kts 176°
2026-04-27 19:46 -8.71671 -63.90039 299 ft 18 kts 176°
2026-04-27 19:46 -8.71772 -63.90033 300 ft 12 kts 176°
2026-04-27 19:47 -8.71848 -63.90031 299 ft 10 kts 187°
2026-04-27 19:47 -8.71906 -63.90062 299 ft 12 kts 219°
2026-04-27 19:47 -8.71972 -63.90119 301 ft 12 kts 220°
2026-04-27 19:47 -8.71971 -63.90170 301 ft 8 kts 344°
2026-04-27 19:48 -8.71916 -63.90171 302 ft 13 kts 357°
2026-04-27 19:48 -8.71531 -63.90196 300 ft 99 kts 356°
2026-04-27 19:48 -8.70590 -63.90253 308 ft 167 kts 356°
2026-04-27 19:48 -8.69402 -63.90298 1050 ft 171 kts 359°
2026-04-27 19:49 -8.68205 -63.90342 1962 ft 173 kts 356°
2026-04-27 19:49 -8.66972 -63.90427 2676 ft 184 kts 355°
2026-04-27 19:49 -8.65628 -63.90525 2969 ft 204 kts 355°
2026-04-27 19:49 -8.64155 -63.90784 3221 ft 228 kts 333°
2026-04-27 19:50 -8.62997 -63.91939 3595 ft 250 kts 294°
2026-04-27 19:50 -8.62786 -63.93697 4202 ft 262 kts 257°
2026-04-27 19:50 -8.63679 -63.95289 5006 ft 267 kts 221°
2026-04-27 19:50 -8.65343 -63.96111 5841 ft 272 kts 189°
2026-04-27 19:51 -8.67236 -63.96276 6687 ft 275 kts 189°
2026-04-27 19:51 -8.68970 -63.97047 7476 ft 278 kts 222°
2026-04-27 19:51 -8.70023 -63.98675 8274 ft 280 kts 252°
2026-04-27 19:51 -8.70356 -64.00614 9092 ft 283 kts 268°
2026-04-27 19:52 -8.70554 -64.02604 9869 ft 286 kts 255°
2026-04-27 19:52 -8.71166 -64.04564 10341 ft 303 kts 251°
2026-04-27 19:52 -8.71897 -64.06650 10570 ft 327 kts 250°
2026-04-27 19:52 -8.72727 -64.08873 10763 ft 349 kts 249°
2026-04-27 19:53 -8.74588 -64.13621 11696 ft 370 kts 248°
2026-04-27 19:53 -8.75554 -64.16052 12365 ft 374 kts 248°
2026-04-27 19:53 -8.76515 -64.18475 13005 ft 378 kts 248°
2026-04-27 19:54 -8.77490 -64.20956 13642 ft 381 kts 248°
2026-04-27 19:54 -8.78468 -64.23464 14266 ft 385 kts 249°
2026-04-27 19:54 -8.79449 -64.25992 14852 ft 388 kts 249°
2026-04-27 19:54 -8.80436 -64.28543 15425 ft 391 kts 249°
2026-04-27 19:55 -8.81434 -64.31120 15979 ft 395 kts 249°
2026-04-27 19:55 -8.82436 -64.33711 16508 ft 398 kts 249°
2026-04-27 19:55 -8.83452 -64.36334 17034 ft 401 kts 249°
2026-04-27 19:55 -8.84474 -64.38965 17548 ft 404 kts 249°
2026-04-27 19:56 -8.85505 -64.41615 18047 ft 407 kts 249°
2026-04-27 19:56 -8.86544 -64.44294 18531 ft 410 kts 249°
2026-04-27 19:56 -8.87585 -64.46983 19005 ft 413 kts 249°
2026-04-27 19:56 -8.88635 -64.49698 19469 ft 416 kts 249°
2026-04-27 19:57 -8.89692 -64.52435 19922 ft 418 kts 249°
2026-04-27 19:57 -8.90720 -64.55196 20362 ft 421 kts 251°
2026-04-27 19:57 -8.91640 -64.58015 20792 ft 424 kts 253°
2026-04-27 19:57 -8.92479 -64.60878 21213 ft 426 kts 254°
2026-04-27 19:58 -8.93280 -64.63779 21625 ft 429 kts 255°
2026-04-27 19:58 -8.94077 -64.66693 22017 ft 431 kts 254°
2026-04-27 19:58 -8.94893 -64.69619 22401 ft 434 kts 254°
2026-04-27 19:58 -8.95734 -64.72561 22772 ft 436 kts 253°
2026-04-27 19:59 -8.96595 -64.75511 23126 ft 439 kts 253°
2026-04-27 19:59 -8.97470 -64.78480 23480 ft 441 kts 253°
2026-04-27 19:59 -8.98352 -64.81460 23829 ft 444 kts 253°
2026-04-27 19:59 -8.99239 -64.84451 24176 ft 446 kts 253°
2026-04-27 20:00 -9.00128 -64.87466 24515 ft 448 kts 253°
2026-04-27 20:00 -9.01015 -64.90494 24838 ft 450 kts 253°
2026-04-27 20:00 -9.01905 -64.93545 25155 ft 452 kts 253°
2026-04-27 20:00 -9.02796 -64.96606 25461 ft 454 kts 253°
2026-04-27 20:01 -9.03690 -64.99674 25749 ft 456 kts 253°
2026-04-27 20:01 -9.04595 -65.02759 26028 ft 458 kts 253°
2026-04-27 20:01 -9.05494 -65.05821 26306 ft 460 kts 253°
2026-04-27 20:01 -9.06405 -65.08931 26582 ft 462 kts 253°
2026-04-27 20:02 -9.07321 -65.12056 26851 ft 464 kts 253°
2026-04-27 20:02 -9.08248 -65.15230 27127 ft 465 kts 253°
2026-04-27 20:02 -9.09152 -65.18330 27499 ft 464 kts 253°
2026-04-27 20:02 -9.10072 -65.21470 27869 ft 464 kts 253°
2026-04-27 20:03 -9.10993 -65.24595 27986 ft 464 kts 253°
2026-04-27 20:03 -9.11912 -65.27719 28017 ft 464 kts 253°
2026-04-27 20:03 -9.13745 -65.33986 28009 ft 464 kts 253°
2026-04-27 20:04 -9.15573 -65.40253 28011 ft 464 kts 253°
2026-04-27 20:04 -9.17087 -65.45465 28002 ft 464 kts 253°
2026-04-27 20:05 -9.19220 -65.52798 28013 ft 464 kts 253°
2026-04-27 20:05 -9.20132 -65.55928 27998 ft 464 kts 253°
2026-04-27 20:05 -9.21044 -65.59062 28002 ft 464 kts 253°
2026-04-27 20:06 -9.21953 -65.62195 27995 ft 464 kts 253°
2026-04-27 20:06 -9.22859 -65.65326 27993 ft 464 kts 253°
2026-04-27 20:06 -9.23770 -65.68470 27995 ft 464 kts 253°
2026-04-27 20:06 -9.24678 -65.71595 27993 ft 463 kts 253°
2026-04-27 20:07 -9.25588 -65.74726 27991 ft 463 kts 253°
2026-04-27 20:07 -9.26501 -65.77868 27990 ft 463 kts 253°
2026-04-27 20:07 -9.27413 -65.80994 27992 ft 463 kts 253°
2026-04-27 20:07 -9.28312 -65.84086 27994 ft 463 kts 253°
2026-04-27 20:08 -9.29219 -65.87215 27994 ft 463 kts 253°
2026-04-27 20:08 -9.30123 -65.90346 27986 ft 463 kts 253°
2026-04-27 20:08 -9.31025 -65.93474 27991 ft 463 kts 253°
2026-04-27 20:08 -9.31928 -65.96607 27990 ft 463 kts 253°
2026-04-27 20:09 -9.32831 -65.99742 27992 ft 463 kts 253°
2026-04-27 20:09 -9.33735 -66.02875 27990 ft 463 kts 253°
2026-04-27 20:09 -9.34347 -66.04989 27989 ft 463 kts 253°
2026-04-27 20:09 -9.35257 -66.08114 27987 ft 463 kts 253°
2026-04-27 20:10 -9.36170 -66.11242 27987 ft 463 kts 253°
2026-04-27 20:10 -9.37081 -66.14378 27991 ft 463 kts 253°
2026-04-27 20:10 -9.37986 -66.17507 27993 ft 463 kts 253°
2026-04-27 20:10 -9.38881 -66.20602 27992 ft 463 kts 253°
2026-04-27 20:11 -9.39785 -66.23736 27992 ft 463 kts 253°
2026-04-27 20:11 -9.40687 -66.26871 27989 ft 463 kts 254°
2026-04-27 20:11 -9.41584 -66.30006 27990 ft 463 kts 254°
2026-04-27 20:11 -9.42483 -66.33145 27987 ft 463 kts 254°
2026-04-27 20:12 -9.43383 -66.36281 27991 ft 463 kts 254°
2026-04-27 20:12 -9.44287 -66.39412 27990 ft 463 kts 253°
2026-04-27 20:12 -9.45195 -66.42552 27991 ft 463 kts 253°
2026-04-27 20:12 -9.46099 -66.45679 27988 ft 463 kts 253°
2026-04-27 20:13 -9.47004 -66.48818 27989 ft 463 kts 253°
2026-04-27 20:13 -9.47905 -66.51946 27987 ft 463 kts 253°
2026-04-27 20:13 -9.48808 -66.55081 27992 ft 463 kts 254°
2026-04-27 20:13 -9.49708 -66.58214 27989 ft 463 kts 254°
2026-04-27 20:14 -9.50605 -66.61348 27989 ft 463 kts 254°
2026-04-27 20:14 -9.51501 -66.64482 27991 ft 463 kts 254°
2026-04-27 20:14 -9.52398 -66.67615 27994 ft 463 kts 254°
2026-04-27 20:14 -9.53288 -66.70719 27991 ft 463 kts 254°
2026-04-27 20:15 -9.54183 -66.73853 27992 ft 463 kts 254°
2026-04-27 20:15 -9.55081 -66.76991 27991 ft 463 kts 254°
2026-04-27 20:15 -9.55979 -66.80126 27987 ft 463 kts 254°
2026-04-27 20:15 -9.56877 -66.83254 27994 ft 463 kts 254°
2026-04-27 20:16 -9.57776 -66.86390 27971 ft 464 kts 254°
2026-04-27 20:16 -9.58674 -66.89532 27722 ft 464 kts 254°
2026-04-27 20:16 -9.59573 -66.92677 27461 ft 465 kts 254°
2026-04-27 20:16 -9.60475 -66.95824 27229 ft 465 kts 254°
2026-04-27 20:17 -9.61383 -66.98977 26974 ft 466 kts 253°
2026-04-27 20:17 -9.62291 -67.02130 26723 ft 466 kts 254°
2026-04-27 20:17 -9.63195 -67.05275 25908 ft 466 kts 254°
2026-04-27 20:17 -9.64097 -67.08429 24659 ft 464 kts 254°
2026-04-27 20:18 -9.64984 -67.11541 23435 ft 459 kts 254°
2026-04-27 20:18 -9.65872 -67.14662 22344 ft 461 kts 254°
2026-04-27 20:18 -9.66760 -67.17781 21521 ft 457 kts 254°
2026-04-27 20:18 -9.67731 -67.20831 20676 ft 454 kts 248°
2026-04-27 20:19 -9.69094 -67.23701 19855 ft 451 kts 240°
2026-04-27 20:19 -9.70651 -67.26440 19045 ft 447 kts 240°
2026-04-27 20:19 -9.72200 -67.29166 18261 ft 443 kts 240°
2026-04-27 20:19 -9.73729 -67.31862 17497 ft 439 kts 240°
2026-04-27 20:20 -9.75241 -67.34534 16768 ft 435 kts 240°
2026-04-27 20:20 -9.76740 -67.37186 16053 ft 431 kts 240°
2026-04-27 20:20 -9.78223 -67.39809 15349 ft 426 kts 240°
2026-04-27 20:20 -9.79689 -67.42399 14681 ft 421 kts 240°
2026-04-27 20:21 -9.81136 -67.44962 14029 ft 416 kts 240°
2026-04-27 20:21 -9.82563 -67.47492 13393 ft 410 kts 240°
2026-04-27 20:21 -9.83969 -67.49985 12765 ft 404 kts 240°
2026-04-27 20:21 -9.85350 -67.52429 12057 ft 401 kts 240°
2026-04-27 20:22 -9.86727 -67.54867 11452 ft 395 kts 240°
2026-04-27 20:22 -9.88067 -67.57236 11267 ft 378 kts 240°
2026-04-27 20:22 -9.89345 -67.59497 11146 ft 361 kts 240°
2026-04-27 20:22 -9.90567 -67.61658 11013 ft 346 kts 240°
2026-04-27 20:23 -9.91736 -67.63729 10889 ft 332 kts 240°
2026-04-27 20:23 -9.92862 -67.65724 10762 ft 319 kts 240°
2026-04-27 20:23 -9.93944 -67.67642 10636 ft 308 kts 240°
2026-04-27 20:23 -9.94987 -67.69489 10504 ft 297 kts 240°
2026-04-27 20:24 -9.96007 -67.71294 10287 ft 291 kts 240°
2026-04-27 20:24 -9.97008 -67.73066 10238 ft 289 kts 240°
2026-04-27 20:24 -9.98007 -67.74837 10023 ft 290 kts 240°
2026-04-27 20:24 -9.99008 -67.76612 9647 ft 289 kts 240°
2026-04-27 20:25 -10.00007 -67.78384 9270 ft 288 kts 240°
2026-04-27 20:25 -10.00988 -67.80127 8898 ft 287 kts 240°
2026-04-27 20:25 -10.01974 -67.81880 8520 ft 286 kts 240°
2026-04-27 20:25 -10.02958 -67.83629 8182 ft 282 kts 240°
2026-04-27 20:26 -10.03921 -67.85343 8145 ft 280 kts 240°
2026-04-27 20:26 -10.04886 -67.87060 8150 ft 280 kts 240°
2026-04-27 20:26 -10.05851 -67.88780 8150 ft 280 kts 240°
2026-04-27 20:26 -10.06817 -67.90500 8151 ft 280 kts 240°
2026-04-27 20:27 -10.07779 -67.92217 8151 ft 280 kts 240°
2026-04-27 20:27 -10.08743 -67.93936 8151 ft 280 kts 240°
2026-04-27 20:27 -10.09708 -67.95659 8151 ft 280 kts 240°
2026-04-27 20:27 -10.10669 -67.97376 8151 ft 280 kts 240°
2026-04-27 20:28 -10.11631 -67.99096 8150 ft 280 kts 240°
2026-04-27 20:28 -10.12593 -68.00817 8152 ft 280 kts 240°
2026-04-27 20:28 -10.13553 -68.02536 8151 ft 280 kts 240°
2026-04-27 20:28 -10.14191 -68.03679 8151 ft 280 kts 240°
2026-04-27 20:29 -10.15477 -68.05984 8150 ft 280 kts 240°
2026-04-27 20:29 -10.16413 -68.07698 8147 ft 271 kts 245°
2026-04-27 20:29 -10.16914 -68.09509 7680 ft 270 kts 267°
2026-04-27 20:29 -10.16662 -68.11370 6966 ft 271 kts 291°
2026-04-27 20:30 -10.15683 -68.12995 6282 ft 271 kts 314°
2026-04-27 20:30 -10.14182 -68.14078 5851 ft 261 kts 336°
2026-04-27 20:30 -10.12471 -68.14498 5513 ft 248 kts 358°
2026-04-27 20:30 -10.10801 -68.14269 5200 ft 239 kts 19°
2026-04-27 20:31 -10.09364 -68.13499 4890 ft 230 kts 34°
2026-04-27 20:31 -10.08067 -68.12592 4607 ft 222 kts 34°
2026-04-27 20:31 -10.06841 -68.11733 4336 ft 206 kts 34°
2026-04-27 20:31 -10.05720 -68.10947 4097 ft 187 kts 34°
2026-04-27 20:32 -10.04706 -68.10235 3977 ft 167 kts 34°
2026-04-27 20:32 -10.03762 -68.09573 3936 ft 164 kts 34°
2026-04-27 20:32 -10.02832 -68.08920 3921 ft 157 kts 34°
2026-04-27 20:32 -10.01954 -68.08305 3866 ft 151 kts 34°
2026-04-27 20:33 -10.01104 -68.07711 3820 ft 150 kts 34°
2026-04-27 20:33 -10.00237 -68.07104 3777 ft 149 kts 34°
2026-04-27 20:33 -9.99382 -68.06506 3727 ft 149 kts 34°
2026-04-27 20:33 -9.98536 -68.05914 3677 ft 149 kts 34°
2026-04-27 20:34 -9.97682 -68.05315 3630 ft 149 kts 34°
2026-04-27 20:34 -9.96882 -68.04649 3577 ft 149 kts 49°
2026-04-27 20:34 -9.96234 -68.03825 3534 ft 150 kts 53°
2026-04-27 20:34 -9.95633 -68.02964 3471 ft 150 kts 55°
2026-04-27 20:35 -9.95050 -68.02090 3328 ft 149 kts 56°
2026-04-27 20:35 -9.94481 -68.01216 3152 ft 149 kts 56°
2026-04-27 20:35 -9.93916 -68.00341 2952 ft 148 kts 56°
2026-04-27 20:35 -9.93353 -67.99464 2771 ft 148 kts 57°
2026-04-27 20:36 -9.92793 -67.98591 2574 ft 147 kts 56°
2026-04-27 20:36 -9.92235 -67.97720 2379 ft 147 kts 57°
2026-04-27 20:36 -9.91680 -67.96852 2188 ft 146 kts 57°
2026-04-27 20:36 -9.91127 -67.95989 1992 ft 146 kts 57°
2026-04-27 20:37 -9.90574 -67.95127 1796 ft 145 kts 57°
2026-04-27 20:37 -9.90024 -67.94268 1606 ft 145 kts 57°
2026-04-27 20:37 -9.89475 -67.93410 1412 ft 145 kts 57°
2026-04-27 20:37 -9.88926 -67.92552 1220 ft 144 kts 57°
2026-04-27 20:38 -9.88382 -67.91703 1030 ft 144 kts 57°
2026-04-27 20:38 -9.87837 -67.90853 831 ft 143 kts 57°
2026-04-27 20:38 -9.87297 -67.90010 658 ft 143 kts 57°
2026-04-27 20:38 -9.86849 -67.89308 631 ft 74 kts 57°
2026-04-27 20:39 -9.86622 -67.88949 616 ft 45 kts 57°
2026-04-27 20:39 -9.86501 -67.88757 617 ft 20 kts 57°
2026-04-27 20:39 -9.86430 -67.88658 614 ft 17 kts 39°
2026-04-27 20:39 -9.86379 -67.88609 610 ft 3 kts 136°
2026-04-27 20:40 -9.86421 -67.88637 606 ft 13 kts 233°
2026-04-27 20:40 -9.86485 -67.88737 614 ft 18 kts 237°
2026-04-27 20:40 -9.86554 -67.88845 618 ft 18 kts 237°
2026-04-27 20:40 -9.86626 -67.88958 616 ft 20 kts 237°
2026-04-27 20:41 -9.86701 -67.89074 620 ft 18 kts 237°
2026-04-27 20:41 -9.86756 -67.89160 621 ft 13 kts 237°
2026-04-27 20:41 -9.86783 -67.89230 627 ft 8 kts 265°
2026-04-27 20:41 -9.86778 -67.89271 625 ft 3 kts 282°
2026-04-27 20:42 -9.86770 -67.89306 626 ft 7 kts 282°
2026-04-27 20:42 -9.86754 -67.89381 630 ft 14 kts 282°
2026-04-27 20:42 -9.86733 -67.89478 630 ft 14 kts 283°
2026-04-27 20:42 -9.86717 -67.89549 629 ft 8 kts 282°
2026-04-27 20:43 -9.86730 -67.89595 633 ft 6 kts 241°
2026-04-27 20:43 -9.86722 -67.89624 636 ft 4 kts 308°
2026-04-27 20:43 -9.86704 -67.89637 629 ft 3 kts 326°
2026-04-27 20:43 -9.86691 -67.89646 628 ft 2 kts 326°
2026-04-27 20:44 -9.86687 -67.89648 628 ft 0 kts 326°